YUNHAI-2 1 (43909 NORAD) Tracking and Keplerian Element Data

This shows tracking and keplerian element data for the satellite.

Feedback or suggestion? Click here.




ElementValue
Catalog43909
NameYUNHAI-2 1
Epoch Orbit338
Epoch Day20.69660427
Epoch Year2019
RAAN76.6374
Inclination50.0137
Eccentricity0.000592
Argument of Perigee339.7875
Mean Anonmoly168.7284
Mean Motion15.15092391
Decay Rate-4.39E-06
L11 43909U 18112A 19020.69660427 -.00000439 00000-0 -69743-5 0 9992
L22 43909 50.0137 76.6374 0005920 339.7875 168.7284 15.15092391 3380

Live tracking and technical data element details for YUNHAI-2 1 (NORAD 43909). YUNHAI-2 1 can be tracked NOW for your location showing map with azimuth and elevation plus other details from your city location.

Track the satellite on the map from your city or location and see movement details for azimuth, elevation, latitude, longitude, range, height, and movement on the map or in text.







IsCatalogInMostPopularTable: catalog: 43909, numindb: 16
Update: records affected: 1



GetName: 43909 YUNHAI-2 1

Hit Count: updated at: Wed, 23 Jan 2019 02:39:55 GMT